Aérodrome :
LOGIN :

S'inscrire | Disclaimer

   EN    FR    IT 

 










Légende :    VFR   VFR Marginal   IFR   IFR Intensif   IFR Très Intensif
Visi : 
Plafond : 
>= 8 km
>= 3000ft
5 à 8 km
1000 à 3000 ft
1500m à 5 km
500 à 1000 ft
800 à 1500m
200 à 500 ft
< 800m
< 200 ft
Symboles :   Orages  Brouillard  Fortes neiges  Fortes précipitations  Vent > 20 kt
SIGMETs :   Divers  Orages  Givrage  Turbulence  Onde Orograph.  Cendres Volcan.






- Altitude de l'aérodrome : 266 ft
- Code IATA : NCL


EGNT - Newcastle

DERNIER METAR :
  • 030720Z 28004KT CAVOK 13/11 Q1012

METARs EXPIRÉS :
  • 030650Z 28004KT 9999 FEW004 12/11 Q1012
  • 030620Z 28005KT 9000 FEW004 11/10 Q1013
  • 030550Z VRB03KT 9000 FEW005 10/10 Q1013
  • 030520Z 23004KT CAVOK 09/08 Q1013
  • 030450Z 23004KT 9999 MIFG NSC 08/08 Q1013

TAF AMD TAF EGNT
Valide du 03 à 06h jusqu'au 04 à 06h UTC


030637Z 0306/0406 23003KT CAVOK
TEMPO 0306/0308 9000
PROB30
TEMPO 0312/0318 6000 SHRA
PROB30 0315/0318 14010KT
ATIS : +44 191 214 3400



MET'MAP, la Météo Aéronautique d'un coup d'oeil ! - Copyright ORBIFLY Décembre 2007 - Disclaimer

ORBIFLY MET'MAP TEAM :

Programmation & Développement : Alexandra Zaïnal
Sur une idée originale de : Baudouin d'Aumeries
Assistance à la programmation : Marc-Olivier Méhu
Soutien technique & logistique : Manuel Goepfert

Contact : metmap@orbifly.com




SOURCES & CREDITS :

   NOAA